Year,Month,Day,Hour,Minute,Value (Times are PST for windspeed in km/hr)
2019,04,30,00,00,1.80
2019,04,30,00,01,3.00
2019,04,30,00,02,3.20
2019,04,30,00,03,3.80
2019,04,30,00,04,2.30
2019,04,30,00,05,2.90
2019,04,30,00,06,2.90
2019,04,30,00,07,2.90
2019,04,30,00,08,2.00
2019,04,30,00,09,2.70
2019,04,30,00,10,3.40
2019,04,30,00,11,3.10
2019,04,30,00,12,2.90
2019,04,30,00,13,3.20
2019,04,30,00,14,3.40
2019,04,30,00,15,4.30
2019,04,30,00,16,3.60
2019,04,30,00,17,3.30
2019,04,30,00,18,4.80
2019,04,30,00,19,4.90
2019,04,30,00,20,4.60
2019,04,30,00,21,4.70
2019,04,30,00,22,7.90
2019,04,30,00,23,4.60
2019,04,30,00,24,5.60
2019,04,30,00,25,2.90
2019,04,30,00,26,3.30
2019,04,30,00,27,2.70
2019,04,30,00,28,3.30
2019,04,30,00,29,3.90
2019,04,30,00,30,3.20
2019,04,30,00,31,4.30
2019,04,30,00,32,4.20
2019,04,30,00,33,3.30
2019,04,30,00,34,3.30
2019,04,30,00,35,2.30
2019,04,30,00,36,2.20
2019,04,30,00,37,2.90
2019,04,30,00,38,2.50
2019,04,30,00,39,4.00
2019,04,30,00,40,4.10
2019,04,30,00,41,4.50
2019,04,30,00,42,2.50
2019,04,30,00,43,3.50
2019,04,30,00,44,3.90
2019,04,30,00,45,2.40
2019,04,30,00,46,2.70
2019,04,30,00,47,5.10
2019,04,30,00,48,2.60
2019,04,30,00,49,2.60
2019,04,30,00,50,3.60
2019,04,30,00,51,4.20
2019,04,30,00,52,4.90
2019,04,30,00,53,3.90
2019,04,30,00,54,2.90
2019,04,30,00,55,2.20
2019,04,30,00,56,3.30
2019,04,30,00,57,4.20
2019,04,30,00,58,5.50
2019,04,30,00,59,3.20
2019,04,30,01,00,3.20
2019,04,30,01,01,4.90
2019,04,30,01,02,5.30
2019,04,30,01,03,6.90
2019,04,30,01,04,4.00
2019,04,30,01,05,4.30
2019,04,30,01,06,2.60
2019,04,30,01,07,2.10
2019,04,30,01,08,3.00
2019,04,30,01,09,7.10
2019,04,30,01,10,5.60
2019,04,30,01,11,5.30
2019,04,30,01,12,4.40
2019,04,30,01,13,3.40
2019,04,30,01,14,1.70
2019,04,30,01,15,3.00
2019,04,30,01,16,4.20
2019,04,30,01,17,3.90
2019,04,30,01,18,5.20
2019,04,30,01,19,1.70
2019,04,30,01,20,3.20
2019,04,30,01,21,2.10
2019,04,30,01,22,4.20
2019,04,30,01,23,3.20
2019,04,30,01,24,5.20
2019,04,30,01,25,5.10
2019,04,30,01,26,4.10
2019,04,30,01,27,3.60
2019,04,30,01,28,4.80
2019,04,30,01,29,4.90
2019,04,30,01,30,3.60
2019,04,30,01,31,2.90
2019,04,30,01,32,3.00
2019,04,30,01,33,3.70
2019,04,30,01,34,2.70
2019,04,30,01,35,3.90
2019,04,30,01,36,2.30
2019,04,30,01,37,2.80
2019,04,30,01,38,3.20
2019,04,30,01,39,5.70
2019,04,30,01,40,2.90
2019,04,30,01,41,4.50
2019,04,30,01,42,4.40
2019,04,30,01,43,3.00
2019,04,30,01,44,2.40
2019,04,30,01,45,2.70
2019,04,30,01,46,3.10
2019,04,30,01,47,3.00
2019,04,30,01,48,3.10
2019,04,30,01,49,3.90
2019,04,30,01,50,2.60
2019,04,30,01,51,1.60
2019,04,30,01,52,2.00
2019,04,30,01,53,2.90
2019,04,30,01,54,3.30
2019,04,30,01,55,2.10
2019,04,30,01,56,3.30
2019,04,30,01,57,3.50
2019,04,30,01,58,2.80
2019,04,30,01,59,2.50
2019,04,30,02,00,2.10
2019,04,30,02,01,2.90
2019,04,30,02,02,2.80
2019,04,30,02,03,3.70
2019,04,30,02,04,5.50
2019,04,30,02,05,4.10
2019,04,30,02,06,1.90
2019,04,30,02,07,3.80
2019,04,30,02,08,3.40
2019,04,30,02,09,3.70
2019,04,30,02,10,3.60
2019,04,30,02,11,3.30
2019,04,30,02,12,4.20
2019,04,30,02,13,4.50
2019,04,30,02,14,1.70
2019,04,30,02,15,4.20
2019,04,30,02,16,3.60
2019,04,30,02,17,5.10
2019,04,30,02,18,4.10
2019,04,30,02,19,3.20
2019,04,30,02,20,3.30
2019,04,30,02,21,3.40
2019,04,30,02,22,3.20
2019,04,30,02,23,3.40
2019,04,30,02,24,3.30
2019,04,30,02,25,3.10
2019,04,30,02,26,2.80
2019,04,30,02,27,4.20
2019,04,30,02,28,3.50
2019,04,30,02,29,2.50
2019,04,30,02,30,3.70
2019,04,30,02,31,4.50
2019,04,30,02,32,2.30
2019,04,30,02,33,4.20
2019,04,30,02,34,5.10
2019,04,30,02,35,2.90
2019,04,30,02,36,2.60
2019,04,30,02,37,3.00
2019,04,30,02,38,2.20
2019,04,30,02,39,3.30
2019,04,30,02,40,2.10
2019,04,30,02,41,1.70
2019,04,30,02,42,1.50
2019,04,30,02,43,1.40
2019,04,30,02,44,2.20
2019,04,30,02,45,2.40
2019,04,30,02,46,2.50
2019,04,30,02,47,2.40
2019,04,30,02,48,3.50
2019,04,30,02,49,2.30
2019,04,30,02,50,3.00
2019,04,30,02,51,1.90
2019,04,30,02,52,1.80
2019,04,30,02,53,1.40
2019,04,30,02,54,3.00
2019,04,30,02,55,4.00
2019,04,30,02,56,3.50
2019,04,30,02,57,4.50
2019,04,30,02,58,4.40
2019,04,30,02,59,2.80
2019,04,30,03,00,1.80
2019,04,30,03,01,3.30
2019,04,30,03,02,2.30
2019,04,30,03,03,3.60
2019,04,30,03,04,3.40
2019,04,30,03,05,2.40
2019,04,30,03,06,2.30
2019,04,30,03,07,2.40
2019,04,30,03,08,1.40
2019,04,30,03,09,1.50
2019,04,30,03,10,2.40
2019,04,30,03,11,2.40
2019,04,30,03,12,3.10
2019,04,30,03,13,4.30
2019,04,30,03,14,2.40
2019,04,30,03,15,2.40
2019,04,30,03,16,2.00
2019,04,30,03,17,2.30
2019,04,30,03,18,1.90
2019,04,30,03,19,2.70
2019,04,30,03,20,2.60
2019,04,30,03,21,3.20
2019,04,30,03,22,2.50
2019,04,30,03,23,3.20
2019,04,30,03,24,1.60
2019,04,30,03,25,3.10
2019,04,30,03,26,3.80
2019,04,30,03,27,2.60
2019,04,30,03,28,2.90
2019,04,30,03,29,2.20
2019,04,30,03,30,3.30
2019,04,30,03,31,3.00
2019,04,30,03,32,3.00
2019,04,30,03,33,2.90
2019,04,30,03,34,2.90
2019,04,30,03,35,1.60
2019,04,30,03,36,4.00
2019,04,30,03,37,2.00
2019,04,30,03,38,3.50
2019,04,30,03,39,2.00
2019,04,30,03,40,3.90
2019,04,30,03,41,2.50
2019,04,30,03,42,2.10
2019,04,30,03,43,2.50
2019,04,30,03,44,2.90
2019,04,30,03,45,3.30
2019,04,30,03,46,2.50
2019,04,30,03,47,2.60
2019,04,30,03,48,3.50
2019,04,30,03,49,4.20
2019,04,30,03,50,6.30
2019,04,30,03,51,3.60
2019,04,30,03,52,5.10
2019,04,30,03,53,6.00
2019,04,30,03,54,6.00
2019,04,30,03,55,5.40
2019,04,30,03,56,2.80
2019,04,30,03,57,1.60
2019,04,30,03,58,2.70
2019,04,30,03,59,4.50
2019,04,30,04,00,2.10
2019,04,30,04,01,2.30
2019,04,30,04,02,1.80
2019,04,30,04,03,2.70
2019,04,30,04,04,1.90
2019,04,30,04,05,1.30
2019,04,30,04,06,2.60
2019,04,30,04,07,1.70
2019,04,30,04,08,5.50
2019,04,30,04,09,5.40
2019,04,30,04,10,3.20
2019,04,30,04,11,3.30
2019,04,30,04,12,2.30
2019,04,30,04,13,2.00
2019,04,30,04,14,1.40
2019,04,30,04,15,2.00
2019,04,30,04,16,2.70
2019,04,30,04,17,2.80
2019,04,30,04,18,3.30
2019,04,30,04,19,4.20
2019,04,30,04,20,3.60
2019,04,30,04,21,3.70
2019,04,30,04,22,4.30
2019,04,30,04,23,2.50
2019,04,30,04,24,3.30
2019,04,30,04,25,3.50
2019,04,30,04,26,3.70
2019,04,30,04,27,3.90
2019,04,30,04,28,3.50
2019,04,30,04,29,3.30
2019,04,30,04,30,3.20
2019,04,30,04,31,3.00
2019,04,30,04,32,2.40
2019,04,30,04,33,3.20
2019,04,30,04,34,3.90
2019,04,30,04,35,2.50
2019,04,30,04,36,3.00
2019,04,30,04,37,2.40
2019,04,30,04,38,2.70
2019,04,30,04,39,2.40
2019,04,30,04,40,2.10
2019,04,30,04,41,2.50
2019,04,30,04,42,2.60
2019,04,30,04,43,3.30
2019,04,30,04,44,2.30
2019,04,30,04,45,2.80
2019,04,30,04,46,4.10
2019,04,30,04,47,2.20
2019,04,30,04,48,4.30
2019,04,30,04,49,3.80
2019,04,30,04,50,2.60
2019,04,30,04,51,2.70
2019,04,30,04,52,3.70
2019,04,30,04,53,2.70
2019,04,30,04,54,3.30
2019,04,30,04,55,3.90
2019,04,30,04,56,1.10
2019,04,30,04,57,2.50
2019,04,30,04,58,1.20
2019,04,30,04,59,2.30
2019,04,30,05,00,2.40
2019,04,30,05,01,1.10
2019,04,30,05,02,1.60
2019,04,30,05,03,1.80
2019,04,30,05,04,1.40
2019,04,30,05,05,1.60
2019,04,30,05,06,1.40
2019,04,30,05,07,1.40
2019,04,30,05,08,2.00
2019,04,30,05,09,2.20
2019,04,30,05,10,2.40
2019,04,30,05,11,1.90
2019,04,30,05,12,1.60
2019,04,30,05,13,2.00
2019,04,30,05,14,1.00
2019,04,30,05,15,2.30
2019,04,30,05,16,1.50
2019,04,30,05,17,3.60
2019,04,30,05,18,3.00
2019,04,30,05,19,3.50
2019,04,30,05,20,2.60
2019,04,30,05,21,3.60
2019,04,30,05,22,2.40
2019,04,30,05,23,2.20
2019,04,30,05,24,3.50
2019,04,30,05,25,3.60
2019,04,30,05,26,3.50
2019,04,30,05,27,3.80
2019,04,30,05,28,2.50
2019,04,30,05,29,3.00
2019,04,30,05,30,2.60
2019,04,30,05,31,2.80
2019,04,30,05,32,1.50
2019,04,30,05,33,3.00
2019,04,30,05,34,2.30
2019,04,30,05,35,2.60
2019,04,30,05,36,2.10
2019,04,30,05,37,3.30
2019,04,30,05,38,2.60
2019,04,30,05,39,2.40
2019,04,30,05,40,1.80
2019,04,30,05,41,2.20
2019,04,30,05,42,2.40
2019,04,30,05,43,2.50
2019,04,30,05,44,2.20
2019,04,30,05,45,3.30
2019,04,30,05,46,2.90
2019,04,30,05,47,3.20
2019,04,30,05,48,3.20
2019,04,30,05,49,2.10
2019,04,30,05,50,1.80
2019,04,30,05,51,1.70
2019,04,30,05,52,2.90
2019,04,30,05,53,1.40
2019,04,30,05,54,2.40
2019,04,30,05,55,1.30
2019,04,30,05,56,2.70
2019,04,30,05,57,4.10
2019,04,30,05,58,3.90
2019,04,30,05,59,4.30
2019,04,30,06,00,4.80
2019,04,30,06,01,3.20
2019,04,30,06,02,3.70
2019,04,30,06,03,4.10
2019,04,30,06,04,2.50
2019,04,30,06,05,4.40
2019,04,30,06,06,3.40
2019,04,30,06,07,2.60
2019,04,30,06,08,3.20
2019,04,30,06,09,3.00
2019,04,30,06,10,3.20
2019,04,30,06,11,2.40
2019,04,30,06,12,2.80
2019,04,30,06,13,2.90
2019,04,30,06,14,2.50
2019,04,30,06,15,4.20
2019,04,30,06,16,3.80
2019,04,30,06,17,4.40
2019,04,30,06,18,4.70
2019,04,30,06,19,3.60
2019,04,30,06,20,2.70
2019,04,30,06,21,2.60
2019,04,30,06,22,2.40
2019,04,30,06,23,1.10
2019,04,30,06,24,3.00
2019,04,30,06,25,0.70
2019,04,30,06,26,3.00
2019,04,30,06,27,4.20
2019,04,30,06,28,2.90
2019,04,30,06,29,3.20
2019,04,30,06,30,3.50
2019,04,30,06,31,3.70
2019,04,30,06,32,3.00
2019,04,30,06,33,3.60
2019,04,30,06,34,2.90
2019,04,30,06,35,2.40
2019,04,30,06,36,2.90
2019,04,30,06,37,2.60
2019,04,30,06,38,1.90
2019,04,30,06,39,2.90
2019,04,30,06,40,3.00
2019,04,30,06,41,2.10
2019,04,30,06,42,2.40
2019,04,30,06,43,2.70
2019,04,30,06,44,1.80
2019,04,30,06,45,2.40
2019,04,30,06,46,3.00
2019,04,30,06,47,3.40
2019,04,30,06,48,1.60
2019,04,30,06,49,4.00
2019,04,30,06,50,2.30
2019,04,30,06,51,5.90
2019,04,30,06,52,3.30
2019,04,30,06,53,4.20
2019,04,30,06,54,3.70
2019,04,30,06,55,2.30
2019,04,30,06,56,2.10
2019,04,30,06,57,1.10
2019,04,30,06,58,4.20
2019,04,30,06,59,2.30
2019,04,30,07,00,1.50
2019,04,30,07,01,3.00
2019,04,30,07,02,3.40
2019,04,30,07,03,3.20
2019,04,30,07,04,1.30
2019,04,30,07,05,2.90
2019,04,30,07,06,3.30
2019,04,30,07,07,1.60
2019,04,30,07,08,2.20
2019,04,30,07,09,2.40
2019,04,30,07,10,3.40
2019,04,30,07,11,4.90
2019,04,30,07,12,5.20
2019,04,30,07,13,5.40
2019,04,30,07,14,5.10
2019,04,30,07,15,3.90
2019,04,30,07,16,4.20
2019,04,30,07,17,3.00
2019,04,30,07,18,4.70
2019,04,30,07,19,2.90
2019,04,30,07,20,3.60
2019,04,30,07,21,2.80
2019,04,30,07,22,3.70
2019,04,30,07,23,3.20
2019,04,30,07,24,4.80
2019,04,30,07,25,4.90
2019,04,30,07,26,4.10
2019,04,30,07,27,8.60
2019,04,30,07,28,5.10
2019,04,30,07,29,8.30
2019,04,30,07,30,5.10
2019,04,30,07,31,5.20
2019,04,30,07,32,4.60
2019,04,30,07,33,4.30
2019,04,30,07,34,6.90
2019,04,30,07,35,5.50
2019,04,30,07,36,6.20
2019,04,30,07,37,6.00
2019,04,30,07,38,9.80
2019,04,30,07,39,8.80
2019,04,30,07,40,6.60
2019,04,30,07,41,6.60
2019,04,30,07,42,5.70
2019,04,30,07,43,4.30
2019,04,30,07,44,5.80
2019,04,30,07,45,6.10
2019,04,30,07,46,3.70
2019,04,30,07,47,5.20
2019,04,30,07,48,6.00
2019,04,30,07,49,4.90
2019,04,30,07,50,4.40
2019,04,30,07,51,4.30
2019,04,30,07,52,3.80
2019,04,30,07,53,4.30
2019,04,30,07,54,3.10
2019,04,30,07,55,1.80
2019,04,30,07,56,3.90
2019,04,30,07,57,5.70
2019,04,30,07,58,4.50
2019,04,30,07,59,3.00
2019,04,30,08,00,5.20
2019,04,30,08,01,4.30
2019,04,30,08,02,7.70
2019,04,30,08,03,8.30
2019,04,30,08,04,6.10
2019,04,30,08,05,4.80
2019,04,30,08,06,5.20
2019,04,30,08,07,4.90
2019,04,30,08,08,3.40
2019,04,30,08,09,3.90
2019,04,30,08,10,6.10
2019,04,30,08,11,8.80
2019,04,30,08,12,6.00
2019,04,30,08,13,2.90
2019,04,30,08,14,7.80
2019,04,30,08,15,4.50
2019,04,30,08,16,4.50
2019,04,30,08,17,4.80
2019,04,30,08,18,4.60
2019,04,30,08,19,7.00
2019,04,30,08,20,9.10
2019,04,30,08,21,12.60
2019,04,30,08,22,10.10
2019,04,30,08,23,5.50
2019,04,30,08,24,7.20
2019,04,30,08,25,9.20
2019,04,30,08,26,7.80
2019,04,30,08,27,7.60
2019,04,30,08,28,6.10
2019,04,30,08,29,6.30
2019,04,30,08,30,7.70
2019,04,30,08,31,6.40
2019,04,30,08,32,8.00
2019,04,30,08,33,5.80
2019,04,30,08,34,6.60
2019,04,30,08,35,8.30
2019,04,30,08,36,9.50
2019,04,30,08,37,4.90
2019,04,30,08,38,11.70
2019,04,30,08,39,6.00
2019,04,30,08,40,6.70
2019,04,30,08,41,8.10
2019,04,30,08,42,6.80
2019,04,30,08,43,3.10
2019,04,30,08,44,4.10
2019,04,30,08,45,5.70
2019,04,30,08,46,4.40
2019,04,30,08,47,3.10
2019,04,30,08,48,2.30
2019,04,30,08,49,5.10
2019,04,30,08,50,4.30
2019,04,30,08,51,1.50
2019,04,30,08,52,8.60
2019,04,30,08,53,12.30
2019,04,30,08,54,4.80
2019,04,30,08,55,5.40
2019,04,30,08,56,10.60
2019,04,30,08,57,12.20
2019,04,30,08,58,5.40
2019,04,30,08,59,13.10
2019,04,30,09,00,11.00
2019,04,30,09,01,4.70
2019,04,30,09,02,3.40
2019,04,30,09,03,7.20
2019,04,30,09,04,7.50
2019,04,30,09,05,10.40
2019,04,30,09,06,11.00
2019,04,30,09,07,13.40
2019,04,30,09,08,11.70
2019,04,30,09,09,6.20
2019,04,30,09,10,8.50
2019,04,30,09,11,12.60
2019,04,30,09,12,9.50
2019,04,30,09,13,9.10
2019,04,30,09,14,7.20
2019,04,30,09,15,7.30
2019,04,30,09,16,5.50
2019,04,30,09,17,6.80
2019,04,30,09,18,12.20
2019,04,30,09,19,7.50
2019,04,30,09,20,10.30
2019,04,30,09,21,7.70
2019,04,30,09,22,5.50
2019,04,30,09,23,7.40
2019,04,30,09,24,10.10
2019,04,30,09,25,10.00
2019,04,30,09,26,6.50
2019,04,30,09,27,7.90
2019,04,30,09,28,5.70
2019,04,30,09,29,6.10
2019,04,30,09,30,6.60
2019,04,30,09,31,13.00
2019,04,30,09,32,10.30
2019,04,30,09,33,8.40
2019,04,30,09,34,6.80
2019,04,30,09,35,5.10
2019,04,30,09,36,2.70
2019,04,30,09,37,4.10
2019,04,30,09,38,2.70
2019,04,30,09,39,4.30
2019,04,30,09,40,7.50
2019,04,30,09,41,6.30
2019,04,30,09,42,6.40
2019,04,30,09,43,6.20
2019,04,30,09,44,3.00
2019,04,30,09,45,2.00
2019,04,30,09,46,5.50
2019,04,30,09,47,7.90
2019,04,30,09,48,6.70
2019,04,30,09,49,5.40
2019,04,30,09,50,4.20
2019,04,30,09,51,5.10
2019,04,30,09,52,9.10
2019,04,30,09,53,6.70
2019,04,30,09,54,10.20
2019,04,30,09,55,5.10
2019,04,30,09,56,5.50
2019,04,30,09,57,5.80
2019,04,30,09,58,8.10
2019,04,30,09,59,4.10
2019,04,30,10,00,1.80
2019,04,30,10,01,1.40
2019,04,30,10,02,1.20
2019,04,30,10,03,1.00
2019,04,30,10,04,4.60
2019,04,30,10,05,3.90
2019,04,30,10,06,1.80
2019,04,30,10,07,3.30
2019,04,30,10,08,4.20
2019,04,30,10,09,3.90
2019,04,30,10,10,5.80
2019,04,30,10,11,9.10
2019,04,30,10,12,5.70
2019,04,30,10,13,3.50
2019,04,30,10,14,3.90
2019,04,30,10,15,6.30
2019,04,30,10,16,6.80
2019,04,30,10,17,4.20
2019,04,30,10,18,3.30
2019,04,30,10,19,6.10
2019,04,30,10,20,3.90
2019,04,30,10,21,2.00
2019,04,30,10,22,2.40
2019,04,30,10,23,5.00
2019,04,30,10,24,2.70
2019,04,30,10,25,2.60
2019,04,30,10,26,4.90
2019,04,30,10,27,5.30
2019,04,30,10,28,7.70
2019,04,30,10,29,5.50
2019,04,30,10,30,2.90
2019,04,30,10,31,3.00
2019,04,30,10,32,11.00
2019,04,30,10,33,4.50
2019,04,30,10,34,3.50
2019,04,30,10,35,3.90
2019,04,30,10,36,3.90
2019,04,30,10,37,1.40
2019,04,30,10,38,2.30
2019,04,30,10,39,5.30
2019,04,30,10,40,5.70
2019,04,30,10,41,6.40
2019,04,30,10,42,8.20
2019,04,30,10,43,5.40
2019,04,30,10,44,5.30
2019,04,30,10,45,4.10
2019,04,30,10,46,4.50
2019,04,30,10,47,1.10
2019,04,30,10,48,2.40
2019,04,30,10,49,4.90
2019,04,30,10,50,3.00
2019,04,30,10,51,4.20
2019,04,30,10,52,1.40
2019,04,30,10,53,3.10
2019,04,30,10,54,3.30
2019,04,30,10,55,5.10
2019,04,30,10,56,4.10
2019,04,30,10,57,2.00
2019,04,30,10,58,1.80
2019,04,30,10,59,6.00
2019,04,30,11,00,4.60
2019,04,30,11,01,4.50
2019,04,30,11,02,2.10
2019,04,30,11,03,2.00
2019,04,30,11,04,4.40
2019,04,30,11,05,5.90
2019,04,30,11,06,6.10
2019,04,30,11,07,3.50
2019,04,30,11,08,6.10
2019,04,30,11,09,4.50
2019,04,30,11,10,2.60
2019,04,30,11,11,3.60
2019,04,30,11,12,4.80
2019,04,30,11,13,2.60
2019,04,30,11,14,2.40
2019,04,30,11,15,3.60
2019,04,30,11,16,4.50
2019,04,30,11,17,6.00
2019,04,30,11,18,3.00
2019,04,30,11,19,3.40
2019,04,30,11,20,2.70
2019,04,30,11,21,2.70
2019,04,30,11,22,4.60
2019,04,30,11,23,3.40
2019,04,30,11,24,4.20
2019,04,30,11,25,4.30
2019,04,30,11,26,4.50
2019,04,30,11,27,4.50
2019,04,30,11,28,6.00
2019,04,30,11,29,6.50
2019,04,30,11,30,6.60
2019,04,30,11,31,11.40
2019,04,30,11,32,5.80
2019,04,30,11,33,4.80
2019,04,30,11,34,5.40
2019,04,30,11,35,5.20
2019,04,30,11,36,5.60
2019,04,30,11,37,5.60
2019,04,30,11,38,5.50
2019,04,30,11,39,2.20
2019,04,30,11,40,2.70
2019,04,30,11,41,4.10
2019,04,30,11,42,6.40
2019,04,30,11,43,9.00
2019,04,30,11,44,7.50
2019,04,30,11,45,7.30
2019,04,30,11,46,4.40
2019,04,30,11,47,1.90
2019,04,30,11,48,1.40
2019,04,30,11,49,3.80
2019,04,30,11,50,1.70
2019,04,30,11,51,2.40
2019,04,30,11,52,9.30
2019,04,30,11,53,5.70
2019,04,30,11,54,8.80
2019,04,30,11,55,6.60
2019,04,30,11,56,4.90
2019,04,30,11,57,7.30
2019,04,30,11,58,5.30
2019,04,30,11,59,3.50
2019,04,30,12,00,2.90
2019,04,30,12,01,3.90
2019,04,30,12,02,3.90
2019,04,30,12,03,6.50
2019,04,30,12,04,4.40
2019,04,30,12,05,4.20
2019,04,30,12,06,4.80
2019,04,30,12,07,2.80
2019,04,30,12,08,6.40
2019,04,30,12,09,4.30
2019,04,30,12,10,4.50
2019,04,30,12,11,3.30
2019,04,30,12,12,5.70
2019,04,30,12,13,3.40
2019,04,30,12,14,3.00
2019,04,30,12,15,4.90
2019,04,30,12,16,2.10
2019,04,30,12,17,4.10
2019,04,30,12,18,6.60
2019,04,30,12,19,5.10
2019,04,30,12,20,3.60
2019,04,30,12,21,2.70
2019,04,30,12,22,7.00
2019,04,30,12,23,6.70
2019,04,30,12,24,4.90
2019,04,30,12,25,2.40
2019,04,30,12,26,3.50
2019,04,30,12,27,3.80
2019,04,30,12,28,4.60
2019,04,30,12,29,5.80
2019,04,30,12,30,5.20
2019,04,30,12,31,8.90
2019,04,30,12,32,6.50
2019,04,30,12,33,3.90
2019,04,30,12,34,4.50
2019,04,30,12,35,10.60
2019,04,30,12,36,5.00
2019,04,30,12,37,3.60
2019,04,30,12,38,5.50
2019,04,30,12,39,6.90
2019,04,30,12,40,6.20
2019,04,30,12,41,6.00
2019,04,30,12,42,5.80
2019,04,30,12,43,4.50
2019,04,30,12,44,9.50
2019,04,30,12,45,8.30
2019,04,30,12,46,10.10
2019,04,30,12,47,6.80
2019,04,30,12,48,4.40
2019,04,30,12,49,2.50
2019,04,30,12,50,2.10
2019,04,30,12,51,4.00
2019,04,30,12,52,4.30
2019,04,30,12,53,3.50
2019,04,30,12,54,3.10
2019,04,30,12,55,4.60
2019,04,30,12,56,4.80
2019,04,30,12,57,6.70
2019,04,30,12,58,10.60
2019,04,30,12,59,12.90
2019,04,30,13,00,12.60
2019,04,30,13,01,9.70
2019,04,30,13,02,12.30
2019,04,30,13,03,5.40
2019,04,30,13,04,3.00
2019,04,30,13,05,8.30
2019,04,30,13,06,12.90
2019,04,30,13,07,13.30
2019,04,30,13,08,9.70
2019,04,30,13,09,9.80
2019,04,30,13,10,8.10
2019,04,30,13,11,6.30
2019,04,30,13,12,6.70
2019,04,30,13,13,5.80
2019,04,30,13,14,8.60
2019,04,30,13,15,7.50
2019,04,30,13,16,4.90
2019,04,30,13,17,7.20
2019,04,30,13,18,6.60
2019,04,30,13,19,5.60
2019,04,30,13,20,5.60
2019,04,30,13,21,5.50
2019,04,30,13,22,6.80
2019,04,30,13,23,7.00
2019,04,30,13,24,7.30
2019,04,30,13,25,7.00
2019,04,30,13,26,6.90
2019,04,30,13,27,7.10
2019,04,30,13,28,7.80
2019,04,30,13,29,7.00
2019,04,30,13,30,6.20
2019,04,30,13,31,5.80
2019,04,30,13,32,6.40
2019,04,30,13,33,7.70
2019,04,30,13,34,4.80
2019,04,30,13,35,7.40
2019,04,30,13,36,6.20
2019,04,30,13,37,5.30
2019,04,30,13,38,7.80
2019,04,30,13,39,6.70
2019,04,30,13,40,5.40
2019,04,30,13,41,2.80
2019,04,30,13,42,3.30
2019,04,30,13,43,4.80
2019,04,30,13,44,5.70
2019,04,30,13,45,4.80
2019,04,30,13,46,7.20
2019,04,30,13,47,8.20
2019,04,30,13,48,4.80
2019,04,30,13,49,4.80
2019,04,30,13,50,6.40
2019,04,30,13,51,8.90
2019,04,30,13,52,5.60
2019,04,30,13,53,6.30
2019,04,30,13,54,6.70
2019,04,30,13,55,8.30
2019,04,30,13,56,7.20
2019,04,30,13,57,6.60
2019,04,30,13,58,6.00
2019,04,30,13,59,6.00
2019,04,30,14,00,4.50
2019,04,30,14,01,6.30
2019,04,30,14,02,6.30
2019,04,30,14,03,5.00
2019,04,30,14,04,5.80
2019,04,30,14,05,5.10
2019,04,30,14,06,4.30
2019,04,30,14,07,4.50
2019,04,30,14,08,5.50
2019,04,30,14,09,4.60
2019,04,30,14,10,5.40
2019,04,30,14,11,4.20
2019,04,30,14,12,4.40
2019,04,30,14,13,4.80
2019,04,30,14,14,6.70
2019,04,30,14,15,5.10
2019,04,30,14,16,6.90
2019,04,30,14,17,4.90
2019,04,30,14,18,4.10
2019,04,30,14,19,5.40
2019,04,30,14,20,3.50
2019,04,30,14,21,5.70
2019,04,30,14,22,4.60
2019,04,30,14,23,4.90
2019,04,30,14,24,7.30
2019,04,30,14,25,7.00
2019,04,30,14,26,8.90
2019,04,30,14,27,6.40
2019,04,30,14,28,5.50
2019,04,30,14,29,5.60
2019,04,30,14,30,2.90
2019,04,30,14,31,5.00
2019,04,30,14,32,5.50
2019,04,30,14,33,4.90
2019,04,30,14,34,6.50
2019,04,30,14,35,4.50
2019,04,30,14,36,4.50
2019,04,30,14,37,3.30
2019,04,30,14,38,4.60
2019,04,30,14,39,6.70
2019,04,30,14,40,5.40
2019,04,30,14,41,7.40
2019,04,30,14,42,4.60
2019,04,30,14,43,3.30
2019,04,30,14,44,3.40
2019,04,30,14,45,2.00
2019,04,30,14,46,6.00
2019,04,30,14,47,5.10
2019,04,30,14,48,5.40
2019,04,30,14,49,6.70
2019,04,30,14,50,5.80
2019,04,30,14,51,5.30
2019,04,30,14,52,4.40
2019,04,30,14,53,3.00
2019,04,30,14,54,3.90
2019,04,30,14,55,3.70
2019,04,30,14,56,3.50
2019,04,30,14,57,3.10
2019,04,30,14,58,4.80
2019,04,30,14,59,6.90
2019,04,30,15,00,7.80
2019,04,30,15,01,4.50
2019,04,30,15,02,4.80
2019,04,30,15,03,4.20
2019,04,30,15,04,4.70
2019,04,30,15,05,4.20
2019,04,30,15,06,5.80
2019,04,30,15,07,7.20
2019,04,30,15,08,3.70
2019,04,30,15,09,4.90
2019,04,30,15,10,5.20
2019,04,30,15,11,4.10
2019,04,30,15,12,4.50
2019,04,30,15,13,6.30
2019,04,30,15,14,7.00
2019,04,30,15,15,6.80
2019,04,30,15,16,5.10
2019,04,30,15,17,8.50
2019,04,30,15,18,6.70
2019,04,30,15,19,6.60
2019,04,30,15,20,6.10
2019,04,30,15,21,7.00
2019,04,30,15,22,6.10
2019,04,30,15,23,7.00
2019,04,30,15,24,5.70
2019,04,30,15,25,6.70
2019,04,30,15,26,5.90
2019,04,30,15,27,3.60
2019,04,30,15,28,4.70
2019,04,30,15,29,5.80
2019,04,30,15,30,6.80
2019,04,30,15,31,7.50
2019,04,30,15,32,5.60
2019,04,30,15,33,5.10
2019,04,30,15,34,6.20
2019,04,30,15,35,3.90
2019,04,30,15,36,5.40
2019,04,30,15,37,5.90
2019,04,30,15,38,5.70
2019,04,30,15,39,5.10
2019,04,30,15,40,5.40
2019,04,30,15,41,4.50
2019,04,30,15,42,5.90
2019,04,30,15,43,8.10
2019,04,30,15,44,6.30
2019,04,30,15,45,5.40
2019,04,30,15,46,3.60
2019,04,30,15,47,6.60
2019,04,30,15,48,7.00
2019,04,30,15,49,6.40
2019,04,30,15,50,5.00
2019,04,30,15,51,4.40
2019,04,30,15,52,3.20
2019,04,30,15,53,5.80
2019,04,30,15,54,4.50
2019,04,30,15,55,4.80
2019,04,30,15,56,4.10
2019,04,30,15,57,5.80
2019,04,30,15,58,4.80
2019,04,30,15,59,3.00
2019,04,30,16,00,3.60
2019,04,30,16,01,3.80
2019,04,30,16,02,2.70
2019,04,30,16,03,5.20
2019,04,30,16,04,5.40
2019,04,30,16,05,6.90
2019,04,30,16,06,5.20
2019,04,30,16,07,4.50
2019,04,30,16,08,4.60
2019,04,30,16,09,5.20
2019,04,30,16,10,4.20
2019,04,30,16,11,6.00
2019,04,30,16,12,6.50
2019,04,30,16,13,5.20
2019,04,30,16,14,3.90
2019,04,30,16,15,3.90
2019,04,30,16,16,3.00
2019,04,30,16,17,2.40
2019,04,30,16,18,4.70
2019,04,30,16,19,5.50
2019,04,30,16,20,4.30
2019,04,30,16,21,5.90
2019,04,30,16,22,4.80
2019,04,30,16,23,5.90
2019,04,30,16,24,4.90
2019,04,30,16,25,4.00
2019,04,30,16,26,4.00
2019,04,30,16,27,5.40
2019,04,30,16,28,3.20
2019,04,30,16,29,4.00
2019,04,30,16,30,4.20
2019,04,30,16,31,3.90
2019,04,30,16,32,5.00
2019,04,30,16,33,5.40
2019,04,30,16,34,5.20
2019,04,30,16,35,5.00
2019,04,30,16,36,4.70
2019,04,30,16,37,5.10
2019,04,30,16,38,3.60
2019,04,30,16,39,2.20
2019,04,30,16,40,4.10
2019,04,30,16,41,3.70
2019,04,30,16,42,4.00
2019,04,30,16,43,4.60
2019,04,30,16,44,4.80
2019,04,30,16,45,2.60
2019,04,30,16,46,4.30
2019,04,30,16,47,2.50
2019,04,30,16,48,4.90
2019,04,30,16,49,2.50
2019,04,30,16,50,3.80
2019,04,30,16,51,4.50
2019,04,30,16,52,4.60
2019,04,30,16,53,5.80
2019,04,30,16,54,7.40
2019,04,30,16,55,6.30
2019,04,30,16,56,4.50
2019,04,30,16,57,4.30
2019,04,30,16,58,5.30
2019,04,30,16,59,3.70
2019,04,30,17,00,4.80
2019,04,30,17,01,1.70
2019,04,30,17,02,4.90
2019,04,30,17,03,4.60
2019,04,30,17,04,1.80
2019,04,30,17,05,4.40
2019,04,30,17,06,4.20
2019,04,30,17,07,4.90
2019,04,30,17,08,3.70
2019,04,30,17,09,2.90
2019,04,30,17,10,3.40
2019,04,30,17,11,3.60
2019,04,30,17,12,3.40
2019,04,30,17,13,3.20
2019,04,30,17,14,3.50
2019,04,30,17,15,4.30
2019,04,30,17,16,4.50
2019,04,30,17,17,3.50
2019,04,30,17,18,3.50
2019,04,30,17,19,3.40
2019,04,30,17,20,3.80
2019,04,30,17,21,3.60
2019,04,30,17,22,3.30
2019,04,30,17,23,3.00
2019,04,30,17,24,3.90
2019,04,30,17,25,3.00
2019,04,30,17,26,2.80
2019,04,30,17,27,1.70
2019,04,30,17,28,4.00
2019,04,30,17,29,4.70
2019,04,30,17,30,3.40
2019,04,30,17,31,4.40
2019,04,30,17,32,2.40
2019,04,30,17,33,4.20
2019,04,30,17,34,5.70
2019,04,30,17,35,3.30
2019,04,30,17,36,3.20
2019,04,30,17,37,3.00
2019,04,30,17,38,3.50
2019,04,30,17,39,2.20
2019,04,30,17,40,3.60
2019,04,30,17,41,2.50
2019,04,30,17,42,3.40
2019,04,30,17,43,2.50
2019,04,30,17,44,3.30
2019,04,30,17,45,3.60
2019,04,30,17,46,3.90
2019,04,30,17,47,2.30
2019,04,30,17,48,2.00
2019,04,30,17,49,3.70
2019,04,30,17,50,3.90
2019,04,30,17,51,3.30
2019,04,30,17,52,4.10
2019,04,30,17,53,3.20
2019,04,30,17,54,2.90
2019,04,30,17,55,2.00
2019,04,30,17,56,2.30
2019,04,30,17,57,2.60
2019,04,30,17,58,3.80
2019,04,30,17,59,4.20
2019,04,30,18,00,2.90
2019,04,30,18,01,3.60
2019,04,30,18,02,3.20
2019,04,30,18,03,2.80
2019,04,30,18,04,3.60
2019,04,30,18,05,3.70